Wind_Speed
4 2 10 15 17 17 18 17 16 15 17 17 16 16 20 20 22 22 23 24 25 25 24 24 23 24 24 23 21 19 16 15 12 9 9 14 15 6 13 9 22 17 20
7 10 15 16 17 18 17 16 17 17 17 19 17 15 18 20 24 26 27 29 30 30 32 31 31 30 30 27 26 25 21 17 14 6 2 3 3 9 7 17 11 21 19
8 5 10 14 12 15 16 17 17 17 17 19 19 19 21 23 28 30 32 34 34 35 37 39 38 36 35 35 33 30 26 21 16 12 6 1 4 4 8 14 14 14 20
4 4 6 9 12 13 14 13 15 17 18 18 21 23 26 27 33 35 37 38 38 37 41 44 45 43 38 35 33 29 25 18 13 7 7 3 2 1 4 5 11 17 17
6 8 10 11 11 9 8 9 12 13 13 13 16 20 24 29 34 36 38 41 42 38 39 41 46 44 35 28 23 18 16 12 9 2 1 6 5 8 6 6 9 20 19
7 4 4 3 3 4 6 8 7 6 8 14 21 26 29 32 34 36 36 38 35 32 32 36 36 31 21 18 14 10 8 4 3 2 8 11 6 6 5 3 9 14 18
4 5 7 4 5 9 7 6 9 14 21 27 31 33 34 35 34 31 30 31 31 26 20 18 19 22 21 14 5 5 7 9 8 8 12 13 13 19 17 14 13 8 20
2 4 8 9 8 7 9 13 18 25 30 30 31 28 28 30 29 28 27 25 19 8 16 24 20 13 8 8 15 18 23 22 21 16 17 19 21 19 17 15 11 10 10
8 8 9 12 12 15 18 20 21 28 28 27 25 28 30 31 30 26 20 14 8 17 19 14 10 10 11 15 12 13 11 12 16 18 19 20 21 21 21 22 20 13 11
7 6 9 10 16 19 18 21 22 27 24 24 25 30 33 30 26 21 13 8 18 19 10 3 7 16 19 12 7 7 12 16 18 18 18 19 21 23 24 24 24 21 19
2 4 8 16 21 23 21 23 22 25 22 21 25 30 32 25 17 13 11 17 16 6 4 10 16 8 8 9 14 15 15 16 17 19 22 24 24 26 25 25 26 24 22
5 6 12 18 21 24 25 25 22 24 19 22 26 28 24 16 10 12 13 12 8 5 8 5 3 6 11 13 13 15 16 18 21 22 22 25 25 25 26 25 27 27 26
8 7 11 14 18 22 24 23 25 19 19 25 29 27 19 12 11 9 8 6 2 4 4 6 8 10 10 12 14 16 17 18 19 20 21 22 20 22 24 26 25 26 26
9 9 7 14 22 21 21 21 18 15 21 25 24 23 15 10 7 3 2 4 5 10 13 12 11 11 11 13 14 17 19 17 17 19 23 27 28 29 28 27 28 28 27
11 8 9 11 19 21 21 21 15 20 23 22 21 11 1 4 8 4 9 14 13 9 14 12 11 11 14 18 18 16 15 19 24 28 31 29 28 27 28 27 28 27 25
8 8 11 16 17 19 22 19 19 22 19 13 8 3 2 2 7 9 5 6 10 14 10 9 14 17 15 12 13 19 20 23 27 29 28 29 29 29 29 28 30 30 27
12 14 14 18 22 23 19 17 22 17 10 9 8 7 8 10 11 14 15 12 10 8 11 12 13 13 16 17 16 18 24 25 27 27 27 27 25 25 26 27 28 29 30
15 14 21 21 22 17 20 20 18 13 14 14 11 10 10 9 10 8 8 7 8 10 11 13 15 13 16 20 24 23 24 25 27 27 27 26 28 28 27 29 29 31 32
19 22 18 18 22 24 20 12 11 13 8 8 8 7 10 9 9 7 9 9 11 12 14 13 12 18 24 25 22 21 23 26 28 27 27 26 27 30 29 31 30 30 31
13 18 25 29 27 24 12 9 11 3 5 1 3 4 5 6 8 10 9 10 13 13 10 14 18 22 24 22 22 21 23 22 22 24 24 25 27 31 32 32 30 28 29
19 24 22 20 21 12 6 6 4 5 4 4 3 5 7 9 9 10 12 13 12 12 14 18 20 22 22 22 24 21 21 23 24 25 26 25 25 26 29 27 27 28 28
19 20 20 23 20 17 11 14 11 5 5 6 6 9 10 9 11 12 12 12 11 15 18 19 24 25 23 22 26 20 21 23 25 27 22 23 26 26 25 25 24 25 25
17 18 17 15 17 16 16 6 4 6 9 8 10 11 10 10 10 11 12 12 16 17 19 21 22 25 22 29 24 25 21 24 25 21 19 22 23 21 21 21 20 19 19
15 11 9 9 11 16 15 12 9 7 7 11 11 11 11 9 10 14 12 14 17 19 18 20 20 18 24 25 26 21 27 23 17 18 15 18 22 20 19 21 21 18 15
7 6 8 8 14 14 13 6 4 7 10 12 12 10 10 11 13 15 14 15 15 14 19 19 16 19 20 22 23 23 23 18 16 14 17 21 22 20 22 22 22 23 22
13 11 12 15 13 8 7 7 8 8 11 11 11 12 13 14 13 15 16 12 14 14 15 15 15 20 20 20 21 21 18 14 13 13 14 17 19 17 18 20 21 21 23
Wind_Direction
359 4 191 182 179 180 189 202 213 223 222 228 234 245 253 261 262 263 264 262 266 259 250 247 243 232 230 233 233 232 234 238 246 257 276 281 286 252 314 333 318 328 324
52 84 128 146 162 179 199 213 227 229 236 242 255 259 277 280 271 268 261 254 259 259 253 249 242 237 232 228 225 224 224 228 224 221 234 297 300 259 261 315 314 319 318
127 138 146 159 177 196 212 226 238 246 253 256 258 267 268 269 273 271 263 265 257 251 247 247 245 239 231 228 225 223 220 218 216 209 199 188 233 322 281 305 309 310 304
166 154 172 193 208 220 232 249 266 269 273 273 272 273 273 273 279 285 288 286 277 261 248 246 245 242 233 228 227 216 219 218 195 192 195 252 267 210 316 300 297 302 302
156 177 193 205 220 241 261 272 284 297 309 315 307 294 287 287 289 290 288 285 283 276 262 254 249 241 236 230 227 200 174 166 152 157 293 307 284 260 220 291 305 306 302
253 286 297 287 303 327 343 356 357 358 337 331 332 326 316 311 308 305 301 302 301 293 271 253 244 237 218 177 156 146 135 140 114 348 308 303 295 287 273 276 291 289 301
313 304 319 309 45 45 46 25 359 341 339 334 326 321 317 314 309 306 303 302 301 293 270 232 187 157 147 133 110 43 342 333 333 304 295 290 286 284 279 269 280 281 296
348 49 59 68 56 49 12 352 345 341 335 328 325 321 317 314 309 304 300 300 292 222 147 140 120 91 60 14 341 327 314 307 299 312 284 272 278 285 284 265 272 290 286
21 21 38 36 27 356 339 334 331 333 330 331 329 331 329 319 308 301 301 298 207 153 133 110 65 16 349 343 343 321 310 296 289 281 289 288 290 292 291 288 277 261 288
42 29 30 8 345 336 335 328 326 330 327 329 333 334 326 310 295 283 285 226 165 148 133 101 343 339 328 327 300 260 266 279 291 297 299 298 300 299 294 289 281 268 265
4 326 328 335 334 334 330 334 326 331 328 328 333 336 324 297 271 238 201 168 154 158 271 311 320 314 264 276 270 283 292 294 299 302 300 299 302 294 289 285 280 270 267
299 289 302 322 326 328 324 330 330 330 330 331 333 330 316 284 239 188 173 177 198 251 303 293 265 268 276 286 293 297 298 298 300 300 298 296 294 286 286 282 276 268 266
295 286 293 303 306 319 322 331 335 328 329 335 333 326 299 253 222 202 189 170 157 343 341 304 280 281 290 295 298 299 300 299 295 291 287 287 287 287 286 285 279 274 272
280 273 285 296 302 307 319 328 327 317 326 327 322 313 282 254 233 183 83 57 12 334 326 308 292 298 301 308 310 308 304 295 291 291 291 292 291 287 282 278 273 271 268
296 287 292 294 295 305 316 321 309 321 325 322 315 301 125 111 110 62 350 347 343 320 295 300 305 314 317 317 311 301 294 297 298 299 298 293 289 283 279 275 275 271 269
295 287 296 298 297 296 311 308 315 321 322 326 326 311 335 327 317 318 328 276 280 290 294 314 318 319 320 315 306 304 302 302 301 298 295 294 290 287 285 279 274 268 264
329 320 310 299 296 303 310 310 316 317 317 312 310 300 298 289 298 292 283 285 296 311 316 318 322 321 316 315 312 305 302 299 297 295 292 289 285 284 282 279 276 273 269
323 310 307 315 325 327 321 317 315 309 300 292 305 304 309 305 306 300 302 316 317 321 327 325 321 322 323 322 316 309 301 299 301 299 295 288 287 285 283 281 275 270 266
300 309 332 333 326 320 317 322 323 336 360 37 53 12 334 306 306 325 323 326 328 330 326 326 330 328 325 325 319 314 309 307 305 305 301 295 292 290 289 285 281 277 272
333 329 327 322 320 320 311 343 356 37 60 321 327 339 355 341 324 321 327 332 331 329 328 328 331 328 324 325 323 317 312 303 304 304 301 299 292 291 291 284 280 278 274
329 329 325 321 325 333 345 350 287 327 293 322 328 341 340 333 329 329 333 331 332 331 333 331 330 330 330 327 328 320 314 310 304 302 302 303 306 305 305 298 294 285 290
325 335 335 330 336 331 313 300 240 292 349 322 332 335 336 337 331 331 334 337 339 337 334 332 332 334 334 331 329 320 315 313 307 301 303 325 319 313 309 302 295 289 289
324 342 335 333 338 339 340 326 340 331 305 321 331 333 334 335 343 346 341 339 339 339 333 334 327 325 332 333 336 334 327 320 315 314 317 323 329 327 326 330 320 307 290
335 341 353 348 10 6 4 357 305 294 317 333 338 335 337 343 354 348 343 338 340 335 335 330 323 326 331 332 334 333 331 330 333 336 338 335 349 345 335 341 350 351 340
313 308 317 299 300 304 307 316 336 338 341 340 341 344 342 341 343 347 342 335 336 332 332 327 329 340 328 325 332 333 330 336 337 348 359 356 351 342 351 349 353 3 2
304 290 297 310 315 331 321 324 327 337 344 346 345 340 331 334 336 336 330 333 333 327 332 327 328 331 327 332 337 339 337 348 353 9 357 347 341 345 347 351 346 354 357
Height
794 791 791 795 800 803 806 807 808 808 808 808 806 805 804 804 804 804 803 802 802 801 801 800 800 799 799 799 800 801 801 801 801 801 800 799 797 797 798 798 798 797 798
797 796 796 798 801 804 806 807 807 806 805 805 804 803 802 801 800 799 798 797 796 795 794 793 793 793 793 793 793 793 794 796 797 797 799 799 795 793 793 794 794 794 795
801 801 800 801 802 804 805 804 803 803 802 802 802 800 799 797 795 793 791 789 787 787 786 785 785 785 785 785 785 786 788 790 792 792 794 798 796 791 789 789 790 791 791
801 800 801 801 801 800 800 801 801 801 801 801 799 797 796 794 791 789 785 782 781 779 778 778 777 777 778 779 780 781 784 785 786 789 789 791 791 793 792 787 785 786 786
802 800 798 797 798 800 800 799 799 800 801 800 798 795 791 788 784 782 778 776 774 773 772 770 769 771 774 777 779 780 780 781 783 786 788 789 788 788 789 784 781 780 781
801 801 801 800 800 800 800 801 801 800 798 796 794 792 789 783 777 773 771 767 765 763 763 763 763 765 769 772 777 779 778 780 780 781 785 787 787 785 785 783 778 778 775
804 804 803 803 803 803 803 802 801 799 796 793 790 787 784 779 775 770 767 764 761 758 756 758 761 762 766 769 773 773 778 780 775 778 780 781 783 784 783 781 777 773 770
805 805 806 806 805 805 805 803 801 798 794 791 787 784 780 776 771 768 765 761 759 758 757 758 762 766 769 770 770 770 772 773 770 773 773 774 776 776 775 776 775 769 766
815 813 812 811 810 809 806 802 799 796 793 790 786 783 779 774 769 765 762 758 757 758 760 763 764 766 767 768 767 767 767 768 769 769 770 769 770 769 769 769 769 768 761
818 817 814 812 810 809 806 802 800 796 791 788 783 778 775 770 766 762 758 756 757 758 761 762 762 763 764 765 764 764 765 767 766 765 765 764 764 763 763 763 762 761 759
821 819 814 811 809 806 804 800 796 792 786 783 780 775 770 766 762 759 757 758 760 761 761 759 759 762 763 763 764 763 762 762 761 761 760 758 758 757 756 756 755 753 753
818 815 813 808 807 805 802 797 793 789 785 782 777 771 765 763 760 760 759 760 760 760 762 760 760 760 760 760 759 759 758 757 756 756 755 753 752 750 750 749 747 746 746
816 813 811 809 805 801 799 794 789 786 784 780 775 771 766 763 763 761 760 761 763 763 761 760 759 759 759 758 757 756 754 753 752 751 749 748 747 745 744 743 741 740 738
812 809 808 806 802 799 794 788 784 782 778 774 771 767 764 763 762 765 765 762 762 763 762 760 759 757 756 754 753 752 750 748 747 746 745 743 741 739 737 735 733 731 729
810 807 805 801 797 792 788 785 782 779 775 770 769 766 763 763 762 763 764 763 762 761 759 757 756 755 752 750 749 748 746 744 742 739 737 734 732 730 729 727 723 723 721
809 806 801 797 792 786 782 780 778 776 773 769 768 768 766 765 764 765 763 760 759 758 756 754 753 751 749 747 746 744 741 738 735 731 728 726 723 720 718 716 715 715 713
809 803 799 794 788 783 781 779 776 773 771 770 768 766 766 763 763 762 762 759 757 756 755 753 751 748 746 744 741 739 735 732 729 725 721 718 715 713 710 707 705 704 704
808 801 795 790 789 785 781 777 774 771 769 767 766 767 764 763 763 761 759 757 756 755 753 750 748 745 743 740 736 733 729 726 722 719 715 712 707 705 702 699 695 693 692
803 799 794 790 786 783 779 775 774 770 769 768 767 766 765 764 762 760 758 756 754 752 749 747 745 742 738 735 731 727 723 719 715 712 708 705 701 697 694 691 686 683 679
805 799 794 790 786 780 779 777 774 772 770 768 767 765 763 763 761 759 756 754 752 749 747 744 742 738 734 731 727 723 719 714 710 706 702 699 695 690 686 682 677 672 668
803 799 793 788 783 778 777 776 775 772 770 768 767 765 763 762 760 757 755 752 749 747 744 741 738 735 731 726 722 719 715 710 705 700 695 691 687 683 678 674 670 665 662
799 795 790 785 781 780 776 774 772 771 771 770 767 765 762 760 759 756 753 751 748 745 742 738 734 731 727 724 718 715 711 707 702 695 691 687 683 677 671 666 661 658 655
796 792 788 784 781 778 775 772 773 772 771 769 766 764 762 760 757 755 752 749 747 743 740 736 732 727 724 720 715 710 706 702 697 693 689 685 678 672 666 660 655 651 648
793 792 789 785 782 779 777 776 774 772 770 768 765 763 761 759 757 754 751 749 746 742 738 735 730 726 722 717 712 707 703 698 694 690 686 682 677 671 665 658 653 648 645
793 789 786 784 780 777 775 773 771 771 769 767 764 762 760 758 755 753 750 748 745 742 738 734 730 726 721 716 712 707 701 697 693 689 685 681 676 670 664 658 653 648 644
789 787 784 782 779 777 774 772 771 770 768 766 763 761 759 756 754 751 748 747 744 741 737 734 730 726 722 716 710 705 700 696 691 689 686 683 679 673 667 662 656 650 645